TimeCST,TemperatureF,Dew PointF,Humidity,Sea Level PressureIn,VisibilityMPH,Wind Direction,Wind SpeedMPH,Gust SpeedMPH,PrecipitationIn,Events,Conditions,WindDirDegrees,DateUTC
12:15 AM,37.4,30.2,75,30.15,10.0,Calm,Calm,-,N/A,,Clear,0,2013-02-19 06:15:00
12:35 AM,39.2,30.2,70,30.15,10.0,West,5.8,-,N/A,,Clear,260,2013-02-19 06:35:00
12:55 AM,39.2,30.2,70,30.16,10.0,West,6.9,-,N/A,,Clear,280,2013-02-19 06:55:00
1:15 AM,39.2,30.2,70,30.17,10.0,Calm,Calm,-,N/A,,Clear,0,2013-02-19 07:15:00
1:35 AM,39.2,30.2,70,30.17,10.0,Calm,Calm,-,N/A,,Clear,0,2013-02-19 07:35:00
1:55 AM,37.4,30.2,75,30.18,10.0,Calm,Calm,-,N/A,,Clear,0,2013-02-19 07:55:00
2:15 AM,37.4,30.2,75,30.18,10.0,Calm,Calm,-,N/A,,Clear,0,2013-02-19 08:15:00
2:35 AM,35.6,28.4,75,30.17,10.0,East,3.5,-,N/A,,Clear,80,2013-02-19 08:35:00
2:55 AM,35.6,28.4,75,30.16,10.0,ENE,5.8,-,N/A,,Clear,60,2013-02-19 08:55:00
3:15 AM,35.6,28.4,75,30.17,10.0,Calm,Calm,-,N/A,,Clear,0,2013-02-19 09:15:00
3:35 AM,35.6,28.4,75,30.18,10.0,NNE,5.8,-,N/A,,Clear,30,2013-02-19 09:35:00
3:55 AM,35.6,28.4,75,30.18,10.0,Calm,Calm,-,N/A,,Clear,0,2013-02-19 09:55:00
4:15 AM,35.6,28.4,75,30.19,10.0,Calm,Calm,-,N/A,,Clear,0,2013-02-19 10:15:00
4:35 AM,35.6,28.4,75,30.19,10.0,Calm,Calm,-,N/A,,Clear,0,2013-02-19 10:35:00
4:55 AM,33.8,28.4,81,30.19,10.0,Calm,Calm,-,N/A,,Clear,0,2013-02-19 10:55:00
5:15 AM,33.8,28.4,81,30.19,10.0,Calm,Calm,-,N/A,,Clear,0,2013-02-19 11:15:00
1:55 PM,60.8,26.6,27,30.26,10.0,ESE,3.5,-,N/A,,Clear,120,2013-02-19 19:55:00
3:55 PM,60.8,26.6,27,30.21,10.0,SE,5.8,-,N/A,,Clear,130,2013-02-19 21:55:00
8:55 PM,48.2,26.6,43,30.20,10.0,Calm,Calm,-,N/A,,Clear,0,2013-02-20 02:55:00
10:35 PM,46.4,28.4,50,30.21,10.0,Calm,Calm,-,N/A,,Scattered Clouds,0,2013-02-20 04:35:00
10:55 PM,46.4,28.4,50,30.21,10.0,ESE,3.5,-,N/A,,Scattered Clouds,110,2013-02-20 04:55:00
11:15 PM,46.4,28.4,50,30.21,10.0,Calm,Calm,-,N/A,,Scattered Clouds,0,2013-02-20 05:15:00
11:35 PM,46.4,28.4,50,30.20,10.0,East,8.1,-,N/A,,Scattered Clouds,100,2013-02-20 05:35:00